Waarnemingen

Advertentie
Mijn weer
Lakaträsk, Zweden (2174): temperatuur & dauwpunt: 15.09.2018 00:00:00 - 21.09.2018 00:00:00 (CEST)Lakaträsk, Zweden (2174): windsnelheid & windstoten: 15.09.2018 00:00:00 - 21.09.2018 00:00:00 (CEST)Lakaträsk, Zweden (2174): windrichting: 15.09.2018 00:00:00 - 21.09.2018 00:00:00 (CEST)Lakaträsk, Zweden (2174): luchtdruk: 15.09.2018 00:00:00 - 21.09.2018 00:00:00 (CEST)Lakaträsk, Zweden (2174): zicht: 15.09.2018 00:00:00 - 21.09.2018 00:00:00 (CEST)Lakaträsk, Zweden (2174): neerslag: 15.09.2018 00:00:00 - 21.09.2018 00:00:00 (CEST)
Datum & Tijd tt [°C] td [°C] ff [km/u] ff [kn] fx [km/u] fx [kn] dd ppp [hPa] vv [km] rr [mm]
21.09.2018 00:00:00 10,2 2,8 8 4 31 17 ZW 988,7 50 0,0
20.09.2018 23:00:00 9,8 3,3 8 4 26 14 ZW 988,2 50 0,0
20.09.2018 22:00:00 9,6 3,8 8 4 24 13 ZZW 988,3 50 0,0
20.09.2018 21:00:00 10,1 3,6 7 4 19 11 ZZW 988,3 50 0,0
20.09.2018 20:00:00 10,8 3,8 8 4 19 10 ZW 988,1 50 0,0
20.09.2018 19:00:00 11,5 3,5 7 4 28 15 ZW 988,1 50 0,0
20.09.2018 18:00:00 12,6 2,2 13 7 50 27 WZW 987,7 50 0,0
20.09.2018 17:00:00 14,7 3,8 11 6 39 21 WZW 986,9 50 0,0
20.09.2018 16:00:00 15,1 6,6 10 5 32 17 W 986,0 47 0,0
20.09.2018 15:00:00 15,3 6,3 10 5 28 15 ZW 985,8 50 0,0
20.09.2018 14:00:00 15,8 8,8 13 7 32 18 Z 985,5 48 0,0
20.09.2018 13:00:00 15,4 10,4 11 6 24 13 Z 985,5 47 0,0
20.09.2018 12:00:00 14,3 11,8 11 6 26 14 Z 985,8 37 0,0
20.09.2018 11:00:00 13,3 12,4 10 6 26 14 ZZO 986,3 21 0,0
20.09.2018 10:00:00 12,1 11,6 9 5 20 11 ZZO 986,8 21 0,3
20.09.2018 09:00:00 12,0 11,4 13 7 29 16 ZZO 987,5 20 0,0
20.09.2018 08:00:00 11,5 11,3 14 7 29 16 ZO 988,4 24 0,4
20.09.2018 07:00:00 10,1 10,1 12 7 29 16 OZO 989,8 1,1 0,0
20.09.2018 06:00:00 9,0 9,0 10 5 28 15 OZO 991,4 1,6 0,0
20.09.2018 05:00:00 8,2 8,2 10 5 23 12 O 993,4 1,8 0,0
20.09.2018 04:00:00 7,6 7,6 11 6 21 11 OZO 995,4 4,0 0,0
20.09.2018 03:00:00 7,7 7,7 4 2 11 6 OZO 996,7 0,6 0,0
20.09.2018 02:00:00 7,8 7,8 2 1 10 6 O 997,5 0,5 0,0
20.09.2018 01:00:00 7,9 7,9 5 3 11 6 ZO 997,9 1,4 0,0
20.09.2018 00:00:00 8,3 8,3 0 0 7 4 N 998,6 10 0,0
19.09.2018 23:00:00 8,4 8,4 0 0 5 3 N 999,0 4,2 0,0
19.09.2018 22:00:00 8,6 8,6 0 0 4 2 N 999,0 0,3 0,0
19.09.2018 21:00:00 8,7 8,7 0 0 9 5 N 999,1 0,3 0,0
19.09.2018 20:00:00 8,7 8,7 5 3 13 7 O 997,8 0,6 0,3
19.09.2018 19:00:00 8,8 8,8 0 0 4 2 N 999,2 0,8 0,1
19.09.2018 18:00:00 9,0 8,9 0 0 4 2 N 999,1 1,8 0,0
19.09.2018 17:00:00 8,9 8,8 0 0 6 4 N 998,8 3,7 0,1
19.09.2018 16:00:00 8,7 8,6 4 2 10 5 O 998,6 4,6 0,4
19.09.2018 15:00:00 8,5 8,4 4 2 14 8 OZO 998,7 4,4 0,4
19.09.2018 14:00:00 8,4 8,1 5 3 14 7 O 998,8 3,7 0,6
19.09.2018 13:00:00 8,1 8,0 5 3 24 13 O 999,0 3,4 0,1
19.09.2018 12:00:00 8,1 7,8 8 5 24 13 O 998,9 6 0,2
19.09.2018 11:00:00 8,1 8,0 10 6 23 12 O 999,2 4,3 0,4
19.09.2018 10:00:00 7,6 7,5 7 4 17 9 ONO 999,9 5 0,2
19.09.2018 09:00:00 6,9 6,8 8 4 18 10 O 1000,3 10 0,4
19.09.2018 08:00:00 5,4 5,3 5 3 10 5 NO 1001,1 13 1,1
19.09.2018 07:00:00 4,8 4,2 4 2 8 5 NO 1001,3 23 0,2
19.09.2018 06:00:00 5,1 4,2 5 3 12 7 O 1001,2 40 0,0
19.09.2018 05:00:00 3,8 3,5 3 2 9 5 O 1001,8 50 0,0
19.09.2018 04:00:00 2,1 2,1 3 1 6 3 NO 1002,6 50 0,0
19.09.2018 03:00:00 1,3 1,2 3 2 9 5 NO 1002,8 38 0,0
19.09.2018 02:00:00 1,8 1,8 6 4 10 6 NO 1002,8 42 0,0
19.09.2018 01:00:00 1,7 1,7 7 4 11 6 NO 1003,1 50 0,0
19.09.2018 00:00:00 -0,1 -0,2 2 1 6 4 NO 1003,4 46 0,0
18.09.2018 23:00:00 -0,1 -0,4 0 0 5 3 N 1003,5 44 0,0
18.09.2018 22:00:00 0,5 0,2 4 2 6 3 NO 1003,8 34 0,0
18.09.2018 21:00:00 2,0 1,6 0 0 5 3 N 1003,7 48 0,0
18.09.2018 20:00:00 3,5 2,9 3 2 6 4 ZO 1003,6 49 0,0
18.09.2018 19:00:00 5,7 4,7 2 1 5 3 Z 1003,0 50 0,0
18.09.2018 18:00:00 8,0 5,1 3 1 10 5 ZO 1002,4 50 0,0
18.09.2018 17:00:00 12,7 4,1 5 3 12 7 ZW 1001,8 50 0,0
18.09.2018 16:00:00 12,8 3,7 4 2 13 7 ZW 1001,8 49 0,0
18.09.2018 15:00:00 13,5 3,3 5 3 15 8 ZZW 1002,0 41 0,0
18.09.2018 14:00:00 13,3 4,2 6 3 18 10 Z 1002,0 45 0,0
18.09.2018 13:00:00 12,9 3,5 7 4 18 10 W 1002,2 46 0,0
18.09.2018 12:00:00 12,7 4,1 4 2 17 9 W 1002,0 44 0,0
18.09.2018 11:00:00 11,2 4,0 5 3 16 8 WZW 1002,2 44 0,0
18.09.2018 10:00:00 9,7 4,7 4 2 9 5 WZW 1002,1 47 0,0
18.09.2018 09:00:00 7,8 4,4 3 2 8 4 W 1002,2 50 0,0
18.09.2018 08:00:00 3,0 2,9 0 0 6 4 N 1002,7 50 0,0
18.09.2018 07:00:00 1,0 1,0 4 2 7 4 Z 1002,7 47 0,0
18.09.2018 06:00:00 0,3 -0,1 2 1 11 6 ZZO 1002,5 41 0,0
18.09.2018 05:00:00 1,0 0,9 3 2 8 4 Z 1002,4 38 0,0
18.09.2018 04:00:00 1,0 0,9 3 2 7 4 ZZW 1002,3 42 0,0
18.09.2018 03:00:00 1,3 1,0 2 1 9 5 Z 1002,0 35 0,0
18.09.2018 02:00:00 3,6 2,3 5 3 11 6 WZW 1001,3 50 0,0
18.09.2018 01:00:00 4,4 2,9 4 2 16 8 WZW 1001,0 47 0,0
18.09.2018 00:00:00 6,2 4,0 5 3 11 6 WZW 1000,6 50 0,0
17.09.2018 23:00:00 5,3 4,7 2 1 8 4 ZW 1000,4 50 0,0
17.09.2018 22:00:00 6,8 5,0 3 2 8 5 WZW 1000,1 50 0,0
17.09.2018 21:00:00 6,7 5,5 4 2 9 5 ZW 1000,1 50 0,0
17.09.2018 20:00:00 6,7 6,1 3 2 8 5 ZZW 1000,1 50 0,0
17.09.2018 19:00:00 6,9 6,0 4 2 10 5 ZZW 999,9 20 0,2
17.09.2018 18:00:00 7,7 5,8 3 2 18 10 ZW 999,7 50 0,1
17.09.2018 17:00:00 9,5 5,5 9 5 22 12 ZW 999,7 50 0,0
17.09.2018 16:00:00 11,0 4,7 5 3 9 5 Z 999,5 50 0,0
17.09.2018 15:00:00 10,7 4,4 4 2 12 7 Z 999,9 50 0,0
17.09.2018 14:00:00 11,3 4,5 4 2 14 8 ZZO 1000,1 50 0,0
17.09.2018 13:00:00 10,7 4,2 5 3 12 6 ZZW 1000,5 40 0,0
17.09.2018 12:00:00 9,1 4,3 5 3 10 6 Z 1001,0 48 0,0
17.09.2018 11:00:00 8,1 5,2 2 1 7 4 W 1001,4 50 0,0
17.09.2018 10:00:00 5,8 3,8 0 0 4 2 N 1002,0 46 0,0
17.09.2018 09:00:00 2,7 1,7 0 0 4 2 N 1002,6 50 0,0
17.09.2018 08:00:00 -1,0 -1,1 0 0 4 2 N 1002,8 50 0,0
17.09.2018 07:00:00 -2,7 -3,0 0 0 5 3 N 1003,2 50 0,0
17.09.2018 06:00:00 -3,0 -3,4 0 0 6 3 N 1003,6 50 0,0
17.09.2018 05:00:00 -2,7 -3,0 0 0 3 1 N 1003,9 0,7 0,0
17.09.2018 04:00:00 -2,2 -2,5 0 0 4 2 N 1004,1 50 0,0
17.09.2018 03:00:00 -1,9 -2,2 0 0 4 2 N 1004,3 50 0,0
17.09.2018 02:00:00 -1,5 -1,6 2 1 4 2 O 1004,4 50 0,0
17.09.2018 01:00:00 -1,1 -1,2 2 1 5 3 OZO 1004,7 50 0,0
17.09.2018 00:00:00 -0,5 -0,6 2 1 4 2 ZZO 1004,8 50 0,0
16.09.2018 23:00:00 0,1 0,0 0 0 5 3 N 1004,7 50 0,0
16.09.2018 22:00:00 1,2 1,1 0 0 6 3 N 1004,8 50 0,0
16.09.2018 21:00:00 2,2 1,9 2 1 4 2 OZO 1004,6 50 0,0
16.09.2018 20:00:00 4,0 3,6 0 0 4 2 N 1004,2 50 -
16.09.2018 19:00:00 7,4 6,2 0 0 7 4 N 1003,7 50 -
16.09.2018 18:00:00 9,2 6,5 0 0 9 5 N 1003,2 50 -
16.09.2018 17:00:00 10,3 5,5 5 3 10 5 WNW 1003,0 50 -
16.09.2018 16:00:00 10,0 6,0 3 2 26 14 NW 1002,7 50 -
16.09.2018 15:00:00 11,8 5,2 8 4 16 9 WNW 1001,9 50 -
16.09.2018 14:00:00 11,4 5,9 7 4 26 14 W 1001,9 50 -
16.09.2018 13:00:00 11,3 5,4 9 5 24 13 WNW 1001,5 46 -
16.09.2018 12:00:00 10,7 5,5 10 5 24 13 W 1001,2 50 -
16.09.2018 11:00:00 9,8 5,6 7 4 - - W 1000,8 50 -
16.09.2018 10:00:00 8,6 6,0 5 3 20 11 WZW 1000,4 50 0,0
16.09.2018 09:00:00 7,8 6,1 6 3 13 7 W 1000,0 50 0,0
16.09.2018 08:00:00 6,8 5,6 5 3 16 9 W 999,7 50 0,0
16.09.2018 07:00:00 6,4 5,0 6 3 19 11 WZW 999,1 50 0,0
16.09.2018 06:00:00 6,4 5,4 9 5 18 10 WZW 998,8 40 0,3
16.09.2018 05:00:00 6,3 5,4 8 4 22 12 ZW 998,5 15 1,1
16.09.2018 04:00:00 6,2 5,6 6 4 23 12 ZW 998,6 11 1,3
16.09.2018 03:00:00 6,2 5,6 5 3 19 11 ZW 998,6 15 1,0
16.09.2018 02:00:00 6,7 5,2 10 5 21 12 WZW 998,4 20 0,2
16.09.2018 01:00:00 6,4 5,0 7 4 18 10 ZW 998,4 42 0,1
16.09.2018 00:00:00 6,2 4,7 5 3 22 12 ZW 998,5 50 0,1
15.09.2018 23:00:00 6,5 4,0 7 4 22 12 WZW 998,5 50 0,0
15.09.2018 22:00:00 6,7 4,9 8 4 18 10 Z 998,4 50 0,0
15.09.2018 21:00:00 6,3 4,8 6 3 13 7 Z 998,3 50 0,0
15.09.2018 20:00:00 6,3 4,5 5 3 17 9 ZW 998,2 50 0,0
15.09.2018 19:00:00 7,6 5,9 7 4 16 9 WZW 998,1 50 0,0
15.09.2018 18:00:00 8,3 6,8 5 3 21 11 ZW 997,8 50 0,0
15.09.2018 17:00:00 9,3 8,2 7 4 29 16 ZW 997,3 50 0,1
15.09.2018 16:00:00 10,1 9,6 5 3 18 10 Z 996,8 35 1,9
15.09.2018 15:00:00 9,8 9,3 9 5 21 11 OZO 997,0 4,6 1,5
15.09.2018 14:00:00 9,8 9,0 7 4 18 10 OZO 997,9 33 0,1
15.09.2018 13:00:00 9,1 8,5 4 2 25 14 OZO 998,9 18 3,6
15.09.2018 12:00:00 9,3 8,8 7 4 18 10 O 999,3 7 0,6
15.09.2018 11:00:00 10,3 8,9 6 4 19 10 ZO 1000,1 48 0,0
15.09.2018 10:00:00 9,8 8,4 7 4 18 10 O 1000,5 29 0,0
15.09.2018 09:00:00 7,5 6,4 3 2 10 5 NO 1001,5 50 0,0
15.09.2018 08:00:00 4,6 4,6 3 1 7 4 NO 1002,3 50 0,0
15.09.2018 07:00:00 2,4 2,4 3 2 9 5 NO 1002,7 50 0,0
15.09.2018 06:00:00 0,9 0,8 4 2 8 4 NNO 1003,1 50 0,0
15.09.2018 05:00:00 -0,3 -0,6 4 2 6 4 NO 1003,6 50 0,0
15.09.2018 04:00:00 1,0 0,4 2 1 9 5 NO 1003,8 50 0,0
15.09.2018 03:00:00 4,4 2,6 5 3 13 7 ZZO 1003,5 50 0,0
15.09.2018 02:00:00 5,4 3,1 6 3 11 6 Z 1003,8 50 0,0
15.09.2018 01:00:00 5,8 3,0 5 3 11 6 Z 1003,8 50 0,0
15.09.2018 00:00:00 3,7 2,7 4 2 10 5 ZZO 1003,8 50 0,0

tt = temperatuur
td = dauwpunt
ff = windsnelheid
fx = windstoten
dd = windrichting
ppp = luchtdruk
vv = zicht
rr = neerslag

Weerstations in de omgeving